Location: Nelson
(38.9945°N, 93.0321°W)
Time: 14:37:54
(UTC+00:00)

ACS3 Solar Sail - Pass Details

Date: 25 June 2024
Orbit: 993 x 1023 km, 97.4° (Epoch: 18 July)

Event Time Altitude Azimuth Distance (km) Brightness Sun altitude
Exits shadow 03:41:15 26° 165° (SSE) 1,847 5.7 -18.0°
Maximum altitude 03:45:00 87° 77° (ENE) 1,002 4.8 -18.5°
Drops below altitude 10° 03:51:14 10° 349° (N) 2,765 8.2 -19.2°
Sets 03:53:43 0° 349° (N) 3,717 9.0 -19.4°
